Wind_Speed
13 13 13 14 15 16 16 16 17 18 19 21 21 20 19 19 19 19 19 18 18 18 18 18 18 19 19 19 18 17 16 16 15 14 14 13 13 12 12 11 10 10 9
11 13 13 14 13 14 15 16 17 18 19 21 22 22 22 21 21 20 20 21 20 20 19 19 20 21 21 21 20 20 19 18 18 17 16 15 15 14 13 13 12 11 11
10 11 13 14 14 15 15 16 17 18 18 19 20 22 23 23 24 23 21 22 22 22 22 21 21 22 23 23 23 22 22 21 20 20 19 18 17 16 15 15 14 14 13
10 11 13 14 15 16 17 17 18 18 19 19 20 21 22 23 24 24 23 23 23 24 24 23 23 24 24 25 25 24 24 24 23 22 21 21 20 19 18 17 16 16 15
11 12 13 15 16 17 18 19 19 19 20 20 21 21 22 23 23 24 24 24 24 25 25 25 24 24 25 26 27 27 26 26 26 25 25 24 23 22 21 20 19 18 18
12 12 13 15 16 17 18 18 19 19 20 22 22 23 23 24 25 25 25 25 26 26 26 27 26 25 26 27 28 29 29 29 29 29 28 27 26 25 24 22 21 21 20
12 12 13 13 15 16 17 17 19 20 21 22 23 24 24 25 26 27 27 27 28 28 28 29 29 28 27 27 28 30 30 31 32 31 31 30 29 28 27 25 24 23 22
11 12 12 13 14 15 16 17 18 20 21 22 23 24 25 26 26 27 29 29 29 30 30 30 31 30 31 30 29 30 31 32 34 34 34 33 32 31 30 29 27 26 25
11 12 12 13 14 14 15 16 17 18 20 21 22 23 24 26 27 27 28 29 30 30 31 31 32 32 33 33 32 31 32 33 33 35 36 36 35 34 33 32 31 29 28
11 12 13 13 14 15 16 16 17 18 19 21 22 23 24 25 26 28 29 30 30 31 31 32 33 34 34 34 34 34 33 34 35 34 35 37 37 37 36 35 34 32 30
11 13 13 14 15 16 17 17 18 19 19 20 21 23 24 25 26 28 29 30 31 32 32 32 33 34 35 36 36 36 36 35 36 36 36 37 38 39 38 37 36 35 34
13 13 14 15 16 17 18 18 19 20 21 21 22 23 24 25 27 28 29 30 31 32 33 34 35 35 35 36 37 38 37 37 38 39 37 38 39 39 39 39 38 37 36
14 15 15 16 17 18 19 19 20 21 22 22 23 24 25 25 26 28 29 30 32 33 34 35 36 37 37 38 39 39 39 39 39 39 39 38 38 39 40 39 39 39 38
16 16 17 18 19 20 21 21 22 23 23 24 24 25 25 26 27 28 29 30 32 33 35 36 37 38 39 39 39 39 40 40 41 41 41 40 40 40 41 40 40 40 40
17 19 20 21 21 22 23 24 24 25 25 25 26 26 27 27 28 29 30 31 32 33 34 36 37 38 40 40 40 40 40 41 42 42 43 43 42 42 42 43 42 41 41
20 21 22 23 24 24 25 26 26 27 28 28 28 29 29 30 31 32 33 33 34 34 35 37 38 39 39 40 41 42 42 42 43 44 44 45 44 44 44 44 44 43 42
22 23 24 25 26 27 27 28 29 30 30 30 31 31 32 33 33 34 34 35 35 36 36 37 39 40 40 41 42 43 44 44 45 45 45 46 45 45 45 45 45 44 43
24 25 26 28 28 29 30 31 32 32 33 33 34 34 34 35 34 35 35 35 35 36 36 37 39 40 41 41 42 43 44 45 45 46 47 47 47 46 47 46 46 45 45
26 27 29 30 31 32 32 33 34 35 36 36 36 36 36 35 35 35 34 34 35 35 35 36 37 39 40 41 42 43 44 45 46 46 46 47 47 48 48 48 47 46 47
28 29 31 32 33 33 34 35 36 37 37 37 37 37 36 35 34 34 34 34 35 35 35 35 35 38 39 40 41 42 43 44 45 46 47 47 48 48 48 48 48 47 47
29 31 32 33 34 35 35 36 37 38 38 38 37 36 35 34 33 33 33 33 34 34 35 35 35 36 39 40 41 42 42 44 45 46 46 47 48 48 48 48 48 49 49
31 32 33 35 35 36 37 38 39 39 38 37 36 35 34 33 32 32 32 32 32 33 34 35 35 36 38 40 41 42 42 43 44 46 47 48 48 49 49 49 48 48 49
33 33 35 36 37 38 39 39 40 39 38 37 36 35 34 33 32 31 31 31 32 32 34 35 35 36 37 39 40 42 43 44 44 46 47 47 48 48 49 49 49 48 47
34 35 36 38 39 39 40 40 40 39 38 37 36 35 33 32 31 30 29 29 31 32 33 34 35 36 37 38 39 40 42 43 43 45 47 48 48 48 49 50 49 49 48
35 36 38 39 39 40 41 41 40 40 38 37 35 34 32 31 30 29 29 29 30 31 32 33 34 34 36 37 38 39 40 42 42 44 46 47 48 48 48 49 50 50 49
36 38 39 40 41 41 42 42 41 40 38 36 35 33 31 30 29 29 29 29 30 31 32 32 32 33 35 36 38 39 40 41 42 43 46 46 47 48 48 49 51 51 50
Wind_Direction
270 268 265 267 269 265 264 262 261 261 257 257 258 260 261 260 259 255 257 257 254 250 245 240 236 231 228 226 224 220 218 217 216 216 215 214 212 211 209 207 206 204 201
274 269 266 267 268 266 266 265 265 265 259 257 256 257 258 259 259 257 256 255 254 251 248 242 240 235 231 229 227 226 224 221 219 218 219 219 217 214 213 212 211 211 209
281 273 269 268 268 269 269 268 268 265 262 260 258 257 256 258 260 258 256 255 253 250 247 245 241 237 233 231 229 228 227 226 223 221 221 221 220 218 216 216 216 215 215
289 280 275 272 271 271 271 271 268 264 261 260 259 258 258 258 258 255 255 254 250 247 247 246 244 240 236 234 233 230 230 228 227 225 223 222 223 222 220 219 218 218 218
287 285 279 276 275 275 274 272 269 266 263 261 261 259 258 258 256 254 254 253 250 247 247 245 243 242 240 236 234 232 232 230 229 228 227 225 224 224 223 223 222 221 220
291 289 285 281 279 277 276 274 272 270 267 263 262 261 259 257 256 254 253 253 251 250 246 243 243 244 243 239 236 234 233 233 230 229 229 227 226 226 225 225 224 223 222
296 293 289 286 284 283 281 278 275 273 270 267 266 264 262 260 258 256 254 253 251 250 248 245 243 244 243 242 239 236 236 234 231 230 229 228 227 227 226 226 225 224 224
304 303 298 297 296 292 287 285 282 278 274 271 268 266 264 262 260 258 255 254 252 250 248 246 244 243 243 242 240 237 236 235 233 230 229 228 228 228 228 228 227 226 225
311 308 306 304 303 300 297 292 288 283 279 275 271 268 266 263 262 259 257 255 253 251 250 249 246 245 243 242 241 240 238 235 234 233 231 230 229 228 228 228 228 227 227
318 315 312 309 306 305 302 298 294 290 285 281 276 272 268 265 264 262 259 257 255 252 250 250 248 246 243 241 242 241 239 237 234 233 233 231 229 229 229 229 228 227 227
325 323 321 317 314 312 309 304 300 297 292 287 282 278 274 270 265 262 260 258 256 253 251 249 247 246 244 242 243 241 239 236 234 233 234 233 231 229 229 230 229 228 229
330 328 325 321 319 316 314 310 306 302 298 292 288 284 280 275 270 266 262 259 257 253 251 249 248 246 245 242 242 241 239 237 236 235 235 235 232 229 228 229 229 230 230
333 330 326 323 321 319 316 313 309 305 301 297 293 289 284 280 276 271 266 262 259 256 253 250 248 247 245 244 242 241 239 237 237 235 234 234 232 230 229 229 230 231 231
333 331 328 325 322 320 317 314 311 307 304 300 296 293 289 284 280 276 271 266 262 259 256 253 250 247 246 245 243 241 240 238 236 234 233 233 233 232 230 230 231 230 231
334 332 330 328 325 321 318 315 312 309 307 303 299 295 292 288 284 279 275 269 265 260 257 255 253 250 247 245 243 241 239 238 236 236 234 233 233 232 231 230 231 231 231
333 331 329 328 325 322 319 317 313 310 308 304 301 297 293 289 286 282 277 271 266 262 258 256 254 252 250 246 244 241 239 237 236 236 235 233 233 232 231 231 230 230 230
331 329 328 326 325 322 319 317 315 312 309 305 302 298 295 291 287 283 279 274 268 263 259 256 254 252 251 248 245 242 239 238 236 235 234 233 233 232 231 230 231 231 230
328 327 326 325 323 320 318 316 315 313 310 307 304 301 297 293 289 283 279 274 269 265 261 256 254 253 251 249 247 244 240 238 237 236 235 234 233 232 231 231 230 231 230
326 326 324 324 323 321 318 316 315 313 310 308 305 302 299 295 290 284 278 274 270 266 263 258 254 253 251 249 247 244 241 238 236 235 235 234 233 233 232 231 230 230 230
325 325 324 324 323 321 319 318 316 315 312 309 306 303 300 296 291 285 279 274 269 266 263 260 255 253 251 249 247 245 241 238 236 235 234 233 232 232 231 231 230 230 229
323 323 323 323 322 321 320 319 317 316 314 311 308 305 301 297 292 287 282 276 271 267 264 261 257 254 252 249 247 244 242 239 236 234 233 232 231 230 229 229 230 230 230
322 321 322 322 321 321 320 320 318 316 314 312 309 306 303 299 294 288 284 279 274 269 266 262 259 256 253 250 247 244 242 240 237 235 233 232 231 230 229 229 229 230 229
320 321 321 322 321 321 321 320 320 317 314 312 309 306 302 299 295 290 285 281 276 272 267 263 259 256 253 250 247 244 241 239 238 236 233 231 231 230 229 229 228 228 229
320 320 320 320 320 320 320 320 320 318 315 312 309 306 303 299 295 291 287 284 280 275 270 265 261 257 253 250 247 244 242 240 238 236 234 232 231 230 229 228 227 227 227
320 320 320 320 320 320 320 320 320 318 315 312 310 307 304 301 297 293 289 286 283 278 273 268 263 258 253 250 247 245 242 240 237 236 234 232 231 230 229 227 225 225 225
319 320 321 320 319 319 320 320 319 318 316 313 310 308 305 302 298 295 291 288 285 281 276 271 264 259 255 251 248 245 243 240 238 235 235 232 230 230 228 226 225 225 225
Height
5871 5871 5871 5872 5872 5872 5872 5873 5873 5873 5873 5874 5874 5875 5875 5876 5878 5879 5880 5881 5882 5883 5884 5886 5888 5890 5892 5894 5896 5897 5899 5901 5903 5905 5907 5909 5910 5912 5914 5915 5916 5918 5919
5868 5867 5868 5868 5868 5868 5868 5869 5869 5869 5869 5869 5870 5870 5871 5872 5873 5874 5875 5876 5877 5879 5880 5881 5883 5885 5887 5889 5892 5894 5896 5898 5900 5902 5905 5906 5908 5910 5912 5914 5915 5917 5918
5864 5864 5864 5864 5864 5864 5864 5864 5864 5864 5864 5865 5865 5866 5866 5867 5867 5869 5870 5871 5872 5873 5875 5876 5878 5880 5882 5884 5887 5890 5892 5895 5897 5899 5901 5904 5906 5908 5910 5911 5913 5915 5917
5861 5861 5861 5860 5860 5860 5860 5860 5860 5860 5860 5860 5860 5861 5861 5862 5862 5863 5864 5865 5866 5868 5869 5871 5873 5875 5877 5879 5882 5885 5887 5890 5893 5895 5898 5900 5902 5905 5907 5909 5911 5913 5915
5858 5858 5857 5856 5856 5856 5855 5855 5855 5855 5855 5855 5855 5856 5856 5856 5856 5857 5858 5859 5860 5862 5864 5865 5867 5869 5871 5874 5876 5879 5882 5884 5887 5890 5893 5896 5898 5901 5903 5906 5908 5910 5912
5855 5854 5853 5853 5852 5851 5851 5850 5850 5849 5849 5849 5850 5850 5850 5850 5851 5851 5852 5853 5854 5855 5857 5859 5861 5863 5865 5868 5870 5873 5875 5878 5881 5885 5888 5891 5894 5896 5899 5902 5904 5907 5909
5852 5851 5850 5849 5848 5847 5846 5845 5845 5844 5844 5843 5843 5844 5844 5844 5844 5845 5845 5846 5848 5849 5851 5853 5855 5857 5859 5861 5864 5866 5869 5871 5874 5878 5882 5885 5888 5891 5894 5897 5900 5903 5905
5848 5847 5846 5845 5844 5842 5841 5840 5839 5839 5838 5837 5837 5837 5838 5838 5837 5838 5838 5839 5841 5842 5844 5846 5848 5850 5852 5855 5857 5859 5862 5864 5867 5871 5874 5878 5882 5885 5889 5892 5895 5898 5901
5845 5844 5842 5841 5840 5838 5837 5835 5834 5833 5832 5832 5831 5831 5831 5831 5830 5831 5831 5832 5833 5835 5837 5838 5840 5843 5845 5847 5850 5852 5854 5857 5860 5864 5867 5871 5875 5878 5882 5886 5889 5893 5896
5842 5841 5839 5837 5835 5834 5832 5831 5829 5828 5827 5825 5825 5824 5824 5824 5824 5824 5824 5825 5825 5827 5829 5830 5832 5834 5837 5839 5842 5844 5846 5849 5853 5856 5860 5863 5867 5871 5875 5879 5883 5887 5890
5839 5837 5835 5833 5831 5829 5827 5826 5824 5822 5821 5819 5818 5817 5817 5817 5816 5817 5817 5817 5818 5819 5821 5822 5824 5826 5828 5830 5833 5836 5838 5841 5845 5848 5852 5855 5859 5863 5867 5871 5876 5880 5884
5836 5834 5832 5830 5827 5825 5823 5821 5819 5817 5815 5813 5812 5811 5810 5809 5808 5808 5809 5808 5809 5811 5812 5814 5815 5817 5818 5821 5824 5826 5829 5833 5836 5840 5844 5847 5851 5855 5859 5863 5868 5872 5877
5833 5831 5828 5826 5823 5821 5818 5816 5813 5811 5809 5807 5805 5803 5802 5801 5800 5800 5800 5800 5800 5801 5803 5804 5806 5808 5809 5812 5814 5817 5820 5824 5827 5831 5835 5839 5842 5846 5851 5855 5860 5864 5869
5830 5827 5825 5822 5819 5816 5813 5810 5808 5805 5803 5800 5798 5796 5794 5793 5792 5791 5791 5791 5791 5792 5793 5794 5796 5798 5800 5802 5805 5807 5811 5814 5818 5822 5826 5830 5834 5838 5842 5847 5852 5856 5861
5827 5824 5821 5817 5814 5811 5808 5805 5802 5799 5796 5793 5791 5789 5787 5785 5783 5782 5781 5781 5782 5782 5783 5783 5785 5787 5789 5792 5794 5797 5801 5804 5808 5812 5816 5820 5824 5829 5833 5838 5843 5848 5852
5823 5820 5816 5813 5809 5806 5802 5799 5795 5792 5789 5786 5783 5781 5778 5776 5774 5772 5771 5770 5771 5771 5772 5772 5773 5775 5777 5780 5783 5786 5790 5794 5798 5802 5806 5810 5814 5819 5823 5828 5834 5839 5843
5819 5815 5812 5808 5804 5800 5796 5792 5788 5785 5781 5778 5774 5771 5768 5766 5763 5761 5760 5759 5759 5760 5761 5762 5762 5764 5766 5768 5771 5775 5778 5783 5786 5791 5795 5799 5804 5808 5813 5818 5824 5829 5834
5815 5811 5807 5803 5799 5794 5790 5785 5781 5777 5773 5769 5765 5761 5758 5755 5752 5750 5749 5748 5747 5747 5749 5750 5750 5752 5754 5756 5759 5763 5766 5771 5775 5779 5783 5788 5793 5798 5803 5808 5813 5819 5824
5810 5806 5801 5797 5792 5788 5783 5778 5773 5769 5764 5759 5755 5751 5747 5744 5741 5739 5737 5736 5735 5735 5736 5738 5739 5739 5742 5744 5747 5750 5754 5758 5763 5767 5772 5776 5781 5786 5791 5797 5803 5808 5814
5804 5800 5795 5791 5786 5781 5776 5771 5765 5760 5755 5750 5745 5741 5737 5733 5730 5727 5726 5725 5724 5724 5724 5726 5727 5728 5730 5732 5735 5738 5742 5746 5750 5755 5760 5765 5770 5775 5780 5786 5792 5797 5803
5799 5794 5789 5784 5779 5774 5768 5763 5757 5751 5746 5740 5735 5730 5726 5722 5719 5717 5715 5713 5713 5713 5713 5714 5715 5716 5718 5719 5722 5726 5730 5733 5738 5743 5748 5753 5758 5764 5769 5774 5780 5786 5792
5792 5788 5783 5777 5772 5766 5761 5755 5749 5743 5737 5731 5725 5721 5716 5712 5709 5706 5704 5703 5702 5701 5702 5702 5703 5704 5706 5707 5710 5713 5717 5722 5727 5731 5735 5741 5746 5752 5757 5763 5769 5774 5780
5786 5781 5775 5770 5764 5758 5752 5746 5740 5734 5727 5721 5716 5711 5707 5703 5699 5696 5694 5692 5691 5690 5690 5690 5691 5692 5693 5695 5698 5701 5704 5708 5713 5717 5723 5729 5734 5740 5745 5751 5757 5763 5769
5778 5773 5767 5762 5756 5749 5743 5737 5731 5725 5718 5712 5707 5702 5697 5693 5689 5687 5684 5682 5680 5679 5679 5679 5680 5680 5681 5683 5685 5688 5691 5696 5701 5705 5709 5716 5721 5727 5733 5739 5745 5751 5757
5770 5765 5759 5753 5747 5741 5734 5728 5722 5715 5709 5703 5697 5692 5688 5684 5680 5677 5675 5673 5671 5669 5667 5667 5667 5668 5669 5671 5673 5676 5680 5684 5688 5692 5697 5703 5709 5714 5720 5727 5733 5739 5746
5762 5756 5751 5744 5738 5732 5725 5719 5712 5706 5700 5694 5689 5684 5679 5675 5672 5668 5666 5663 5661 5658 5657 5656 5656 5657 5657 5659 5661 5664 5667 5671 5675 5680 5684 5690 5696 5701 5708 5715 5721 5727 5734